AEROCUBE 4.5A

Last updated on Mon Nov 03 2025 00:04:05 GMT+0000 (Coordinated Universal Time)

1 38767U 12048K 25305.86755602 .00049458 00000+0 98491-3 0 9993 2 38767 64.6422 98.2674 0080776 240.6069 118.6986 15.43078160337151
UTC large
Height (km)
Speed (km/s)
/
Latitude / Longitude
Inclination (degrees)
Orbital Period (minutes)
Azimuth
Elevation
Range (km)
Doppler Factor

Next 0 passes for location: London (51.5072 / 0.1276)

Sorry there are no passes over London.